FW8927 Weather Reports


Display with metric or nautical units.
time (UTC)temp
F
wind
direction
speed
MPH
gust
MPH
rain 1hr
in
rain 24hr
in
rain mn
in
humidity
%
barometer
mb
20260506031600 62 227 1.0 8.0 0.00 0.00 0.00 76 1005.8
20260506030113 61 252 1.0 4.0 0.00 0.00 0.00 77 1005.8
20260506024554 62 233 1.0 3.0 0.00 0.00 0.00 76 1005.9
20260506023052 64 254 1.0 4.0 0.00 0.00 0.00 66 1006.4
20260506021558 64 209 0.0 2.0 0.00 0.00 0.00 64 1005.8
20260506020052 65 0 0.0 3.0 0.00 0.00 0.00 63 1005.7
20260506014600 66 0 0.0 2.0 0.00 0.00 0.00 62 1006.0
20260506013054 66 233 1.0 5.0 0.00 0.00 0.00 62 1006.2
20260506011559 66 0 1.0 4.0 0.00 0.00 0.00 62 1005.9
20260506010058 66 0 0.0 5.0 0.00 0.00 0.00 61 1005.9
20260506004628 67 216 3.0 7.0 0.00 0.00 0.00 61 1005.8
20260506003059 67 188 3.0 8.0 0.00 0.00 0.00 62 1005.7
20260506001600 67 200 2.0 5.0 0.00 0.00 0.00 62 1006.1
20260506000056 68 223 3.0 7.0 0.00 0.00 0.00 60 1006.3
20260505234618 68 196 3.0 7.0 0.00 0.00 0.00 61 1006.3
20260505233057 68 194 2.0 7.0 0.00 0.00 0.00 59 1006.4
20260505231551 69 212 5.0 12.0 0.00 0.00 0.00 58 1006.7
20260505230059 69 248 4.0 11.0 0.00 0.00 0.00 58 1006.9
20260505224556 69 225 5.0 9.0 0.00 0.00 0.00 58 1007.1
20260505223103 69 188 6.0 16.0 0.00 0.00 0.00 57 1007.4
20260505221616 69 209 5.0 10.0 0.00 0.00 0.00 57 1007.3
20260505220138 70 193 6.0 12.0 0.00 0.00 0.00 56 1007.3
20260505214617 70 196 5.0 11.0 0.00 0.00 0.00 56 1007.6
20260505213100 70 267 4.0 17.0 0.00 0.00 0.00 56 1007.6
20260505211611 70 277 6.0 16.0 0.00 0.00 0.00 56 1007.9
20260505210053 70 211 7.0 18.0 0.00 0.00 0.00 55 1007.6
20260505204555 70 206 7.0 20.0 0.00 0.00 0.00 55 1007.6
20260505203104 71 196 5.0 16.0 0.00 0.00 0.00 55 1007.6
20260505201608 71 231 8.0 18.0 0.00 0.00 0.00 55 1007.9
20260505200103 72 277 5.0 17.0 0.00 0.00 0.00 56 1008.1
20260505194603 71 186 6.0 17.0 0.00 0.00 0.00 56 1008.2
20260505193052 70 226 9.0 16.0 0.00 0.00 0.00 55 1008.6
20260505191553 71 198 7.0 19.0 0.00 0.00 0.00 56 1008.8
20260505190100 70 226 6.0 14.0 0.00 0.00 0.00 56 1009.1
20260505184552 70 276 7.0 21.0 0.00 0.00 0.00 56 1009.2
20260505183052 70 205 9.0 20.0 0.00 0.00 0.00 56 1009.3
20260505181552 70 254 6.0 22.0 0.00 0.00 0.00 57 1009.5
20260505180054 70 256 5.0 19.0 0.00 0.00 0.00 58 1009.4
20260505174552 70 274 7.0 17.0 0.00 0.00 0.00 58 1009.6
20260505173053 70 219 6.0 16.0 0.00 0.00 0.00 62 1009.7
20260505171549 70 225 3.0 11.0 0.00 0.00 0.00 64 1009.8
20260505170052 69 239 4.0 12.0 0.00 0.00 0.00 63 1009.9
20260505164611 69 205 4.0 14.0 0.00 0.00 0.00 64 1010.0
20260505163054 69 197 9.0 16.0 0.00 0.00 0.00 62 1010.2
20260505161558 69 204 8.0 17.0 0.00 0.00 0.00 62 1010.0
20260505160107 69 196 5.0 13.0 0.00 0.00 0.00 64 1009.9
20260505153053 68 190 5.0 12.0 0.00 0.01 0.00 63 1009.9
20260505151606 67 240 6.0 15.0 0.00 0.01 0.00 63 1009.9
20260505124559 61 198 5.0 9.0 0.00 0.04 0.00 70 1009.9
20260505123053 61 197 3.0 8.0 0.00 0.04 0.00 71 1009.9
20260505121553 61 199 4.0 11.0 0.00 0.04 0.00 71 1010.0
20260505120112 60 242 5.0 11.0 0.00 0.04 0.00 71 1009.9
20260505114554 60 250 3.0 10.0 0.00 0.07 0.00 72 1009.8
20260505113058 60 194 3.0 9.0 0.00 0.07 0.00 72 1009.8
20260505111558 60 221 3.0 8.0 0.00 0.07 0.00 72 1009.6
20260505110107 59 204 3.0 7.0 0.00 0.07 0.00 72 1009.2
20260505101555 59 219 3.0 7.0 0.00 0.08 0.00 74 1008.7
20260505100055 60 240 3.0 11.0 0.00 0.08 0.00 72 1008.7
20260505094557 60 203 4.0 12.0 0.00 0.08 0.00 72 1008.7
20260505093104 60 253 4.0 11.0 0.00 0.08 0.00 72 1008.7
20260505091606 60 198 4.0 9.0 0.00 0.08 0.00 72 1008.4
20260505090056 60 252 3.0 9.0 0.00 0.08 0.00 72 1008.2
20260505084551 61 259 6.0 12.0 0.00 0.08 0.00 71 1008.2
20260505083053 61 238 3.0 12.0 0.00 0.08 0.00 72 1008.2
20260505081555 61 221 4.0 12.0 0.00 0.08 0.00 71 1008.2
20260505074554 62 231 5.0 13.0 0.00 0.08 0.00 72 1008.1
20260505073100 62 213 5.0 11.0 0.00 0.08 0.00 71 1008.1
20260505071555 62 236 5.0 13.0 0.00 0.08 0.00 71 1008.1
20260505070056 62 225 4.0 14.0 0.00 0.08 0.00 72 1008.2
20260505064553 62 207 5.0 12.0 0.00 0.08 0.00 72 1008.1
20260505063112 62 205 4.0 11.0 0.00 0.08 0.00 73 1008.2
20260505061556 62 239 4.0 9.0 0.00 0.08 0.00 73 1008.2
20260505060057 62 209 3.0 10.0 0.00 0.08 0.00 73 1008.5
20260505054608 62 234 3.0 8.0 0.00 0.08 0.00 73 1008.5
20260505053100 62 209 4.0 11.0 0.00 0.08 0.00 73 1008.6
20260505051553 63 274 3.0 10.0 0.00 0.08 0.00 72 1008.5
20260505041558 63 227 3.0 9.0 0.00 0.08 0.00 71 1007.8
20260505040058 64 243 3.0 7.0 0.00 0.08 0.00 71 1007.7
20260505034549 63 215 2.0 7.0 0.00 0.08 0.08 72 1007.5
20260505033054 63 242 2.0 7.0 0.00 0.08 0.08 72 1007.6